This is the latest recevied weather packets stored in our database for station/object G6UYG-13. If no packets are shown the sender has not sent any weather packets the latest 10 day(s).
| Time | Temp. | Humidity | Pressure | Rain* | Wind** | Luminosity | Snow |
|---|---|---|---|---|---|---|---|
| 1777732489 | 18.33° C | 56% | 1011.6 hPa | 0 mm | - | 308 W/m² | - |
| 1777732069 | 18.33° C | 56% | 1011.6 hPa | 0 mm | - | 338 W/m² | - |
| 1777731649 | 18.89° C | 55% | 1011.8 hPa | 0 mm | - | 352 W/m² | - |
| 1777731229 | 18.89° C | 54% | 1011.8 hPa | 0 mm | - | 323 W/m² | - |
| 1777730809 | 18.89° C | 54% | 1011.9 hPa | 0 mm | - | 329 W/m² | - |
| 1777730389 | 18.89° C | 54% | 1012 hPa | 0 mm | - | 364 W/m² | - |
| 1777729969 | 18.89° C | 53% | 1012.1 hPa | 0 mm | - | 450 W/m² | - |
| 1777729549 | 18.89° C | 54% | 1012.1 hPa | 0 mm | - | 571 W/m² | - |
| 1777729129 | 18.89° C | 54% | 1012.2 hPa | 0 mm | - | 594 W/m² | - |
| 1777728709 | 18.89° C | 53% | 1012.5 hPa | 0 mm | - | 566 W/m² | - |
| 1777728289 | 18.89° C | 56% | 1012.6 hPa | 0 mm | - | 415 W/m² | - |
| 1777727869 | 18.89° C | 55% | 1012.7 hPa | 0 mm | - | 745 W/m² | - |
| 1777727449 | 18.33° C | 57% | 1012.7 hPa | 0 mm | - | 694 W/m² | - |
| 1777727029 | 18.33° C | 57% | 1012.7 hPa | 0 mm | - | 733 W/m² | - |
| 1777726610 | 17.78° C | 56% | 1012.9 hPa | 0 mm | - | 819 W/m² | - |
| 1777726190 | 18.33° C | 56% | 1013 hPa | 0 mm | - | 338 W/m² | - |
| 1777725770 | 17.78° C | 57% | 1012.9 hPa | 0 mm | - | 872 W/m² | - |
| 1777725349 | 17.22° C | 58% | 1013 hPa | 0 mm | - | 856 W/m² | - |
| 1777724930 | 17.22° C | 60% | 1013 hPa | 0 mm | - | 367 W/m² | - |
| 1777724510 | 17.22° C | 59% | 1013.1 hPa | 0 mm | - | 323 W/m² | - |
| 1777724090 | 17.78° C | 58% | 1013.2 hPa | 0 mm | - | 318 W/m² | - |
| 1777723670 | 17.78° C | 59% | 1013.3 hPa | 0 mm | - | 918 W/m² | - |
| 1777723250 | 17.22° C | 60% | 1013.4 hPa | 0 mm | - | 427 W/m² | - |
| 1777722830 | 16.67° C | 62% | 1013.5 hPa | 0 mm | - | 840 W/m² | - |
| 1777722410 | 16.67° C | 61% | 1013.7 hPa | 0 mm | - | 788 W/m² | - |
* Rain latest hour (hover to see other rain measurements)
** Current wind speed in m/s (hover to see current wind gust speed)